This is the latest recevied weather packets stored in our database for station/object WB6ANP. If no packets are shown the sender has not sent any weather packets the latest 10 day(s).
| Time | Temp. | Humidity | Pressure | Rain* | Wind** | Luminosity | Snow |
|---|---|---|---|---|---|---|---|
| 1777748717 | 22.78° C | 40% | 1021.4 hPa | 0 mm | - | 1047 W/m² | - |
| 1777748414 | 23.33° C | 41% | 1021.1 hPa | 0 mm | - | 343 W/m² | - |
| 1777748109 | 22.78° C | 39% | 1021.2 hPa | 0 mm | - | 989 W/m² | - |
| 1777747806 | 22.78° C | 39% | 1021.3 hPa | 0 mm | - | 943 W/m² | - |
| 1777747502 | 22.78° C | 39% | 1021.3 hPa | 0 mm | - | 940 W/m² | - |
| 1777747198 | 22.78° C | 40% | 1021.3 hPa | 0 mm | - | 948 W/m² | - |
| 1777746895 | 22.78° C | 38% | 1021.5 hPa | 0 mm | - | 941 W/m² | - |
| 1777746589 | 22.78° C | 40% | 1021.5 hPa | 0 mm | - | 943 W/m² | - |
| 1777746286 | 22.78° C | 38% | 1021.5 hPa | 0 mm | - | 947 W/m² | - |
| 1777745982 | 22.78° C | 43% | 1021.6 hPa | 0 mm | - | 950 W/m² | - |
| 1777745680 | 22.78° C | 37% | 1021.7 hPa | 0 mm | - | 969 W/m² | - |
| 1777745379 | 22.78° C | 37% | 1021.9 hPa | 0 mm | - | 958 W/m² | - |
| 1777745076 | 22.78° C | 38% | 1022.1 hPa | 0 mm | - | 951 W/m² | - |
| 1777744772 | 22.78° C | 42% | 1022 hPa | 0 mm | - | 948 W/m² | - |
| 1777744466 | 22.22° C | 41% | 1022.2 hPa | 0 mm | - | 939 W/m² | - |
| 1777744163 | 22.78° C | 37% | 1022.2 hPa | 0 mm | - | 936 W/m² | - |
| 1777743860 | 22.22° C | 43% | 1022.2 hPa | 0 mm | - | 930 W/m² | - |
| 1777743556 | 21.67° C | 39% | 1022.4 hPa | 0 mm | - | 928 W/m² | - |
| 1777743253 | 22.78° C | 39% | 1022.3 hPa | 0 mm | - | 922 W/m² | - |
| 1777742952 | 22.22° C | 38% | 1022.7 hPa | 0 mm | - | 922 W/m² | - |
| 1777742648 | 21.67° C | 42% | 1022.4 hPa | 0 mm | - | 879 W/m² | - |
| 1777742344 | 21.67° C | 37% | 1022.5 hPa | 0 mm | - | 907 W/m² | - |
| 1777742040 | 21.67° C | 38% | 1022.6 hPa | 0 mm | - | 899 W/m² | - |
| 1777741738 | 21.11° C | 42% | 1022.7 hPa | 0 mm | - | 891 W/m² | - |
| 1777741434 | 21.11° C | 42% | 1022.6 hPa | 0 mm | - | 880 W/m² | - |
* Rain latest hour (hover to see other rain measurements)
** Current wind speed in m/s (hover to see current wind gust speed)